www.pogodaiklimat.ru

Погода и климат >> Архив погоды >> Китай >> Nanyue


ПОГОДА в Nanyue

  • Прогноз погоды в Nanyue
  • Монитор погоды в Nanyue
  • Климат города

АРХИВ ПОГОДЫ в Nanyue

Время (UTC), дата Ветер
(напр.,м/с)
 
Видим.   Явления Облачность Т
(С)
Тd
(С)
f
(%)
Тe
(С)
Тes
(С)
Комфортность P
(гПа)
Po
(гПа)
Тmin
(С)
Tmax
(С)
R
(мм)
R24
(мм)
S
(см)
21 16.06 СВ 7 200 м туман ?/? +13.0 +13.0 100 +10 +10 1007.9 1008.0
00 17.06 СВ 4 <100 м туман ?/? +14.2 +14.2 100 +13 +13 1008.9 1009.0
03 17.06 В 3 400 м туман ?/? +16.7 +16.7 100 +16 +16 1009.1 1009.0
06 17.06 СВ 2 3000 м дымка {туман} 10/10 <50 м
[]
+18.0 +16.5 91 +19 +19 1008.1 1008.0 +12.8
09 17.06 СВ 2 6000 м дымка 10/10 200 м
[]
+18.2 +16.7 91 +19 +19 1007.5 1008.0
12 17.06 В 4 1000 м в посл. час туман 10/10 300 м
[]
+16.4 +16.4 100 +16 +16 1008.3 1008.0
18 17.06 СВ 5 1800 м в посл. час туман ?/? +15.4 +15.4 100 +14 +14 1007.5 869.3 +19.0
21 17.06 В 7 2500 м в посл. час туман ?/? +15.3 +15.1 99 +13 +13 1006.8 1007.0
00 18.06 В 6 7000 м дымка 10/10 200 м
[]
+16.4 +14.6 89 +15 +15 1007.7 1030.5
03 18.06 СВ 2 6000 м дымка 9/9 200 м
[]
+19.6 +17.4 87 +23 +25 комфорт 1008.1 1008.0
06 18.06 СВ 2 3100 м дымка 10/10 200 м
[]
+17.9 +17.1 95 +18 +18 1007.7 1008.0 +14.7
09 18.06 СВ 2 н/о дымка 10/10 200 м
[]
+18.9 +16.9 88 +21 +21 комфорт 1006.6 1007.0
12 18.06 В 4 10 км 10/10 200 м
[]
+17.4 +15.7 90 +17 +17 1007.2 1007.0
18 18.06 ЮВ 3 8000 м ?/? +17.5 +16.5 94 +17 +17 1006.5 868.8 +20.7
21 18.06 Ю 2 2500 м дымка ?/? +16.9 +16.7 99 +17 +17 1006.2 1006.0
00 19.06 штиль 0 3300 м дымка 9/9 200 м
[]
+18.3 +17.5 95 +19 +19 1006.8 1007.0
03 19.06 Ю 1 300 м туман ?/? +18.9 +18.4 97 +22 +22 комфорт 1007.2 1007.0
06 19.06 С 1 200 м туман ?/? +19.7 +19.2 97 +24 +24 комфорт 1005.8 1028.8 +16.8
09 19.06 СЗ 1 6000 м дымка {туман} 9/9 50 м
[]
+21.8 +19.5 87 +27 +28 душно 1005.2 1005.0
12 19.06 штиль 0 10 км {туман} 9/9 100 м
[]
+19.6 +14.6 73 +21 +21 комфорт 1005.7 868.7
18 19.06 З 5 4200 м дымка ?/? +18.3 +17.0 92 +18 +18 1005.1 1005.0 +22.4
21 19.06 З 4 3200 м дымка ?/? +18.5 +18.2 98 +19 +19 1004.5 1005.0
00 20.06 З 4 1600 м в посл. час туман 10/10 100 м
[]
+18.7 +18.7 100 +20 +20 1006.2 1006.0
03 20.06 Ю 1 3000 м дымка {туман} 10/10 200 м
[]
+20.6 +19.6 94 +26 +26 душно 1005.9 1006.0
06 20.06 Ю 2 13 км {туман} 9/9 300 м
[]
+22.3 +18.3 78 +27 +29 душно 1004.5 1005.5 +18.3
09 20.06 ЮЗ 4 1200 м дождь {туман} 10/10 50 м
[]
+17.7 +17.4 98 +17 +17 1004.5 1005.0
12 20.06 Ю 6 900 м слабый дождь {туман} 10/10 50 м
[]
+17.2 +16.2 94 +16 +16 1004.8 1005.0 7
18 20.06 Ю 4 <100 м туман ?/? +19.0 +19.0 100 +21 +21 комфорт 1002.8 1003.0 +22.4 7
21 20.06 З 5 <100 м туман ?/? +19.1 +19.1 100 +21 +21 комфорт 1003.1 1003.0
00 21.06 З 3 700 м слабый дождь 10/10 50 м
[]
+19.1 +19.1 100 +21 +21 комфорт 1004.6 1004.2 17
03 21.06 З 2 <100 м туман {дождь} 9/9 100 м
[]
+20.4 +20.4 100 +25 +27 комфорт 1004.7 1005.0
06 21.06 З 2 <100 м туман {дождь} ?/? +20.1 +20.1 100 +24 +24 комфорт 1004.0 1004.0 +17.1 0.0
09 21.06 З 3 500 м туман 9/9 50 м
[]
+21.0 +20.3 96 +27 +27 душно 1002.6 1003.0
12 21.06 Ю 5 <100 м туман ?/? +18.9 +18.9 100 +20 +20 1004.1 1004.0
18 21.06 З 6 2600 м в посл. час туман ?/? +18.4 +18.4 100 +19 +19 1005.8 1006.0 +22.1
21 21.06 ЮЗ 6 <100 м туман ?/? +19.1 +19.1 100 +21 +21 комфорт 1004.9 1005.0
00 22.06 ЮЗ 6 300 м туман 9/9 100 м
[]
+19.6 +19.6 100 +22 +22 комфорт 1007.0 869.9
03 22.06 З 5 1800 м дымка 10/10 200 м
[]
+21.0 +20.5 97 +26 +26 душно 1007.9 824.9
06 22.06 ЮЗ 5 9000 м 10/10 200 м
[]
+21.4 +20.7 96 +27 +27 душно 1007.1 870.3 +18.3
09 22.06 З 5 400 м сильный ливневой дождь 10/10 50 м
[]
+20.7 +20.7 100 +26 +26 душно 1006.2 1006.0
12 22.06 ЮЗ 6 <100 м туман {ливн. осадки} 10/10 200 м
[]
+19.8 +19.8 100 +23 +23 комфорт 1007.3 1007.0 4
18 22.06 ЮЗ 11 400 м туман ?/? +19.3 +19.3 100 +21 +21 комфорт 1006.1 1006.0 +22.2 0.1
21 22.06 Ю 14
{17}
7000 м ?/? +19.0 +18.8 99 +19 +19 1005.0 1005.0
00 23.06 ЮЗ 13
{20}
24 км слабый дождь 10/10 50 м
[]
+19.8 +19.3 97 +22 +22 комфорт 1005.5 1006.0 1
03 23.06 ЮЗ 12
{20}
15 км слабый дождь 10/10 50 м
[]
+20.2 +20.0 99 +23 +23 комфорт 1005.8 1006.0
06 23.06 ЮЗ 16
{23}
6000 м слабый дождь {туман} 10/10 200 м
[]
+20.1 +20.1 100 +23 +23 комфорт 1004.6 1005.0 +19.0 0.9
09 23.06 ЮЗ 19
{26}
11 км слабый дождь 10/10 200 м
[]
+20.3 +20.1 99 +23 +23 комфорт 1002.7 1003.0
12 23.06 ЮЗ 16
{26}
30 км {дождь} 10/10 300 м
[]
+21.1 +19.6 91 +26 +26 душно 1003.2 1003.0 0.2
18 23.06 ЮЗ 14
{26}
28 км ?/? +21.3 +19.9 92 +26 +26 душно 1003.0 1003.0 +21.8

 

Местоположение метеостанции Nanyue (Китай): широта 27.30 долгота 112.70 высота над уровнем моря 1268 м.

В архиве по умолчанию представлена погода в Nanyue за последнюю неделю. Архивные данные за месяц целиком и за предыдущие месяцы, начиная с января 2011 года, Вы можете получить, выбрав интересующий диапазон дат из раскрывающегося списка и нажав кнопку "Ввод!".

Внимание! Время в таблицах - всемирное. Для получения местного времени необходимо прибавить поправку, которая в Nanyue равна 8 ч.

Смотрите также архив погоды в соседних городах и на ближайших метеорологических станциях:

Погода в Changsha (Китай) (105 км)
Погода в Shaoyang (Китай) (123 км)
Погода в Lingling (Китай) (161 км)
Погода в Chenzhou (Китай) (170 км)
Погода в Yichun (Китай) (175 км)
Погода в Wugang (Китай) (215 км)
Погода в Changde (Китай) (219 км)
Погода в Jian (Китай) (224 км)
Погода в Yueyang (Китай) (234 км)
Погода в Yuanling (Китай) (261 км)

Пояснения к столбцам:

Ветер - указаны скорость ветра в м/с - средняя за 10 мин, порывы в срок и между сроками (в фигурных скобках) и направление, откуда дует ветер: С - северный, СВ - северо-восточный, В - восточный, ЮВ - юго-восточный, Ю - южный, ЮЗ - юго-западный, З - западный, СЗ - северо-западный.
Видимость - горизонтальная дальность видимости в метрах или километрах. При видимости от 1 до 10 км при отсутствии осадков обычно наблюдается дымка, при ухудшении видимости до 1 км и менее - туман. В сухую погоду видимость может ухудшаться дымом, пылью или мглою.
Явления - указаны атмосферные явления, наблюдавшиеся в срок или в последний час перед сроком; фигурными скобками обозначены явления, наблюдавшиеся между сроками (за 1-3 часа до срока); квадратными скобками обозначены град или гололедные отложения с указанием их диаметра в мм.
Облачность - указаны через наклонную черту общая и нижняя облачность в баллах и высота нижней границы облаков в метрах; квадратными скобками обозначены формы облаков: Ci - перистые, Cs - перисто-слоистые, Cc - перисто-кучевые, Ac - высококучевые, As - высокослоистые, Sc - слоисто-кучевые, Ns - слоисто-дождевые, Cu - кучевые, Cb - кучево-дождевые. Подробнее классификацию облаков см. в Атласе облаков (PDF).
T - Температура воздуха - температура, измеренная на высоте 2 м над землей.
Td - Температура точки росы - температура, при понижении до которой содержащийся в воздухе водяной пар достигнет насыщения.
f - Относительная влажность воздуха - влажноcть воздуха, измеренная на высоте 2 м над землей.
Te - Эффективная температура - температура, которую ощущает одетый по сезону человек в тени. Характеристика душности погоды. При расчете учитывается влияние влажности воздуха и скорости ветра на теплоощущения человека.
Tes - Эффективная температура на солнце - температура, которую ощущает человек, с поправкой на солнечный нагрев. Характеристика знойности погоды. Зависит от высоты солнца над горизонтом, облачности и скорости ветра. Ночью, в пасмурную погоду, а также при ветре 12 м/с и более поправка равна нулю.
P - Атмосферное давление - приведенное к уровню моря атмосферное давление.
Po - Атмосферное давление - измеренное на уровне метеостанции атмосферное давление.
Tmin - Минимальная температура - минимум температуры воздуха на высоте 2 м над землей.
Tmax - Максимальная температура - максимум температуры воздуха на высоте 2 м над землей.
R - Количество осадков - Количество выпавших осадков за период времени, мм. При наведении курсора мыши на число - период времени, за который выпало указанное количество осадков.
R24 - Количество осадков - Количество выпавших осадков за 24 часа, мм.
S - Снежный покров - Высота снежного покрова, см. При наведении курсора мыши на число - состояние снежного покрова и степень покрытия местности в баллах.